Time,TemperatureF,DewpointF,PressureIn,WindDirection,WindDirectionDegrees,WindSpeedMPH,WindSpeedGustMPH,Humidity,HourlyPrecipIn,Conditions,Clouds,dailyrainin,SoftwareType,DateUTC
2013-12-31 00:04:00,20.3,-1.2,30.03,SSW,203,4.0,4.0,38,0.00,,---,0.00,VWS V14.01,2013-12-31 07:04:00,
2013-12-31 00:09:00,20.3,-0.7,30.00,SSW,196,6.3,6.3,39,0.00,,---,0.00,VWS V14.01,2013-12-31 07:09:00,
2013-12-31 00:14:00,20.1,-0.9,30.00,SSW,194,6.3,6.3,39,0.00,,---,0.00,VWS V14.01,2013-12-31 07:14:00,
2013-12-31 00:19:00,20.1,-0.9,30.00,SSW,194,4.9,5.4,39,0.00,,---,0.00,VWS V14.01,2013-12-31 07:19:00,
2013-12-31 00:24:00,20.1,-0.9,30.00,South,185,4.0,4.9,39,0.00,,---,0.00,VWS V14.01,2013-12-31 07:24:00,
2013-12-31 00:29:00,20.1,-0.9,30.00,South,180,4.9,4.9,39,0.00,,---,0.00,VWS V14.01,2013-12-31 07:29:00,
2013-12-31 00:34:00,19.9,-1.0,30.00,South,177,6.3,6.7,39,0.00,,---,0.00,VWS V14.01,2013-12-31 07:34:00,
2013-12-31 00:39:00,20.1,-0.9,30.00,South,179,6.3,6.3,39,0.00,,---,0.00,VWS V14.01,2013-12-31 07:39:00,
2013-12-31 00:44:00,20.3,-0.2,30.00,South,187,6.3,7.2,40,0.00,,---,0.00,VWS V14.01,2013-12-31 07:44:00,
2013-12-31 00:49:00,20.3,-0.2,30.00,South,187,6.3,6.3,40,0.00,,---,0.00,VWS V14.01,2013-12-31 07:49:00,
2013-12-31 00:54:00,20.3,-0.2,30.00,SSW,196,5.8,5.8,40,0.00,,---,0.00,VWS V14.01,2013-12-31 07:54:00,
2013-12-31 00:59:00,20.3,-0.2,30.00,SSW,194,7.6,7.6,40,0.00,,---,0.00,VWS V14.01,2013-12-31 07:59:00,
2013-12-31 01:04:00,20.3,-0.2,29.97,SSW,198,5.8,8.1,40,0.00,,---,0.00,VWS V14.01,2013-12-31 08:04:00,
2013-12-31 01:09:00,20.3,-0.2,29.97,South,189,7.6,7.6,40,0.00,,---,0.00,VWS V14.01,2013-12-31 08:09:00,
2013-12-31 01:14:00,20.1,-0.3,29.97,South,186,8.7,8.7,40,0.00,,---,0.00,VWS V14.01,2013-12-31 08:14:00,
2013-12-31 01:19:00,20.1,0.2,29.97,South,190,9.6,9.6,41,0.00,,---,0.00,VWS V14.01,2013-12-31 08:19:00,
2013-12-31 01:24:00,20.3,0.4,29.97,South,191,8.3,8.3,41,0.00,,---,0.00,VWS V14.01,2013-12-31 08:24:00,
2013-12-31 01:29:00,20.3,0.4,29.97,South,186,8.3,8.3,41,0.00,,---,0.00,VWS V14.01,2013-12-31 08:29:00,
2013-12-31 01:34:00,20.3,0.4,29.97,South,181,7.6,7.6,41,0.00,,---,0.00,VWS V14.01,2013-12-31 08:34:00,
2013-12-31 01:39:00,20.3,0.9,29.97,SSW,193,7.6,8.3,42,0.00,,---,0.00,VWS V14.01,2013-12-31 08:39:00,
2013-12-31 01:44:00,20.5,1.0,29.97,South,184,8.7,8.7,42,0.00,,---,0.00,VWS V14.01,2013-12-31 08:44:00,
2013-12-31 01:49:00,20.5,1.0,29.97,South,181,7.6,8.1,42,0.00,,---,0.00,VWS V14.01,2013-12-31 08:49:00,
2013-12-31 01:54:00,20.5,1.0,29.97,South,186,8.1,8.3,42,0.00,,---,0.00,VWS V14.01,2013-12-31 08:54:00,
2013-12-31 01:59:00,20.5,1.5,29.97,South,183,8.3,8.3,43,0.00,,---,0.00,VWS V14.01,2013-12-31 08:59:00,
2013-12-31 02:04:00,20.8,1.9,29.97,South,186,8.1,8.1,43,0.00,,---,0.00,VWS V14.01,2013-12-31 09:04:00,
2013-12-31 02:09:00,21.0,2.0,29.97,South,181,7.6,7.6,43,0.00,,---,0.00,VWS V14.01,2013-12-31 09:09:00,
2013-12-31 02:14:00,21.2,2.2,29.97,South,191,10.1,10.1,43,0.00,,---,0.00,VWS V14.01,2013-12-31 09:14:00,
2013-12-31 02:19:00,21.4,1.9,29.94,South,186,8.3,8.3,42,0.00,,---,0.00,VWS V14.01,2013-12-31 09:19:00,
2013-12-31 02:24:00,21.6,2.5,29.94,SSW,208,7.6,8.1,43,0.00,,---,0.00,VWS V14.01,2013-12-31 09:24:00,
2013-12-31 02:29:00,21.7,2.7,29.94,SSW,211,8.7,8.7,43,0.00,,---,0.00,VWS V14.01,2013-12-31 09:29:00,
2013-12-31 02:34:00,21.6,2.5,29.94,SSW,203,8.7,8.7,43,0.00,,---,0.00,VWS V14.01,2013-12-31 09:34:00,
2013-12-31 02:39:00,21.6,2.5,29.94,SSW,201,7.2,7.2,43,0.00,,---,0.00,VWS V14.01,2013-12-31 09:39:00,
2013-12-31 02:44:00,21.4,2.4,29.94,SW,214,7.6,7.6,43,0.00,,---,0.00,VWS V14.01,2013-12-31 09:44:00,
2013-12-31 02:50:00,21.4,2.4,29.94,SSW,205,6.3,6.3,43,0.00,,---,0.00,VWS V14.01,2013-12-31 09:50:00,
2013-12-31 02:55:00,21.4,2.4,29.94,SW,215,7.6,7.6,43,0.00,,---,0.00,VWS V14.01,2013-12-31 09:55:00,
2013-12-31 03:00:00,21.4,2.4,29.94,SW,220,7.6,7.6,43,0.00,,---,0.00,VWS V14.01,2013-12-31 10:00:00,
2013-12-31 03:05:00,21.4,2.4,29.94,SW,222,8.1,8.1,43,0.00,,---,0.00,VWS V14.01,2013-12-31 10:05:00,
2013-12-31 03:10:00,21.7,2.7,29.94,SW,219,8.3,8.3,43,0.00,,---,0.00,VWS V14.01,2013-12-31 10:10:00,
2013-12-31 03:15:00,22.1,3.0,29.94,SSW,213,8.1,8.3,43,0.00,,---,0.00,VWS V14.01,2013-12-31 10:15:00,
2013-12-31 03:20:00,22.3,3.2,29.94,SSW,206,7.6,7.6,43,0.00,,---,0.00,VWS V14.01,2013-12-31 10:20:00,
2013-12-31 03:25:00,22.5,3.4,29.94,SSW,204,6.3,6.7,43,0.00,,---,0.00,VWS V14.01,2013-12-31 10:25:00,
2013-12-31 03:30:00,22.5,3.4,29.91,SW,216,6.7,6.7,43,0.00,,---,0.00,VWS V14.01,2013-12-31 10:30:00,
2013-12-31 03:35:00,22.6,3.5,29.94,SW,222,6.3,6.3,43,0.00,,---,0.00,VWS V14.01,2013-12-31 10:35:00,
2013-12-31 03:40:00,22.6,3.5,29.94,SW,229,7.2,7.2,43,0.00,,---,0.00,VWS V14.01,2013-12-31 10:40:00,
2013-12-31 03:45:00,22.6,3.5,29.94,WSW,240,7.6,7.6,43,0.00,,---,0.00,VWS V14.01,2013-12-31 10:45:00,
2013-12-31 03:50:00,22.3,3.2,29.91,SW,224,7.2,7.2,43,0.00,,---,0.00,VWS V14.01,2013-12-31 10:50:00,
2013-12-31 03:55:00,22.3,3.2,29.91,SSW,212,5.8,5.8,43,0.00,,---,0.00,VWS V14.01,2013-12-31 10:55:00,
2013-12-31 04:00:00,22.3,3.2,29.91,SW,222,5.4,5.4,43,0.00,,---,0.00,VWS V14.01,2013-12-31 11:00:00,
2013-12-31 04:05:00,22.3,3.2,29.91,SW,217,6.3,6.3,43,0.00,,---,0.00,VWS V14.01,2013-12-31 11:05:00,
2013-12-31 04:10:00,22.5,3.4,29.91,SW,218,6.3,6.3,43,0.00,,---,0.00,VWS V14.01,2013-12-31 11:10:00,
2013-12-31 04:15:00,22.6,3.5,29.91,SW,215,6.7,6.7,43,0.00,,---,0.00,VWS V14.01,2013-12-31 11:15:00,
2013-12-31 04:20:00,22.8,3.7,29.88,SW,220,6.3,6.3,43,0.00,,---,0.00,VWS V14.01,2013-12-31 11:20:00,
2013-12-31 04:25:00,22.8,3.7,29.88,SW,216,5.8,6.3,43,0.00,,---,0.00,VWS V14.01,2013-12-31 11:25:00,
2013-12-31 04:30:00,23.0,3.8,29.88,SW,219,6.3,6.3,43,0.00,,---,0.00,VWS V14.01,2013-12-31 11:30:00,
2013-12-31 04:35:00,23.4,4.2,29.88,SW,221,6.3,6.3,43,0.00,,---,0.00,VWS V14.01,2013-12-31 11:35:00,
2013-12-31 04:40:00,23.4,4.2,29.91,SSW,212,6.3,6.3,43,0.00,,---,0.00,VWS V14.01,2013-12-31 11:40:00,
2013-12-31 04:45:00,23.5,4.3,29.91,SSW,212,6.3,6.3,43,0.00,,---,0.00,VWS V14.01,2013-12-31 11:45:00,
2013-12-31 04:50:00,23.5,4.3,29.88,SSW,206,6.3,6.3,43,0.00,,---,0.00,VWS V14.01,2013-12-31 11:50:00,
2013-12-31 04:55:00,23.5,4.3,29.88,SSW,204,5.4,5.4,43,0.00,,---,0.00,VWS V14.01,2013-12-31 11:55:00,
2013-12-31 05:00:00,23.5,4.3,29.88,SSW,209,6.3,6.3,43,0.00,,---,0.00,VWS V14.01,2013-12-31 12:00:00,
2013-12-31 05:05:00,23.4,4.2,29.88,SSW,211,6.3,6.3,43,0.00,,---,0.00,VWS V14.01,2013-12-31 12:05:00,
2013-12-31 05:10:00,23.4,4.2,29.88,SSW,196,5.8,5.8,43,0.00,,---,0.00,VWS V14.01,2013-12-31 12:10:00,
2013-12-31 05:15:00,23.4,4.2,29.88,South,189,5.4,5.8,43,0.00,,---,0.00,VWS V14.01,2013-12-31 12:15:00,
2013-12-31 05:20:00,23.4,4.2,29.88,SSW,193,4.9,5.4,43,0.00,,---,0.00,VWS V14.01,2013-12-31 12:20:00,
2013-12-31 05:25:00,23.5,4.3,29.91,South,191,5.8,6.3,43,0.00,,---,0.00,VWS V14.01,2013-12-31 12:25:00,
2013-12-31 05:30:00,23.5,4.3,29.91,SSW,195,6.3,6.3,43,0.00,,---,0.00,VWS V14.01,2013-12-31 12:30:00,
2013-12-31 05:35:00,23.5,4.3,29.91,SSW,202,5.4,5.4,43,0.00,,---,0.00,VWS V14.01,2013-12-31 12:35:00,
2013-12-31 05:40:00,23.7,4.5,29.91,SSW,209,6.3,6.3,43,0.00,,---,0.00,VWS V14.01,2013-12-31 12:40:00,
2013-12-31 05:45:00,23.5,4.3,29.91,SSW,195,7.2,7.2,43,0.00,,---,0.00,VWS V14.01,2013-12-31 12:45:00,
2013-12-31 05:50:00,23.4,4.2,29.91,SSW,192,5.8,5.8,43,0.00,,---,0.00,VWS V14.01,2013-12-31 12:50:00,
2013-12-31 05:55:00,23.2,4.0,29.91,SSW,195,5.8,5.8,43,0.00,,---,0.00,VWS V14.01,2013-12-31 12:55:00,
2013-12-31 06:00:00,23.2,4.0,29.91,SSW,203,5.8,5.8,43,0.00,,---,0.00,VWS V14.01,2013-12-31 13:00:00,
2013-12-31 06:05:00,23.2,4.0,29.91,SSW,200,6.3,6.3,43,0.00,,---,0.00,VWS V14.01,2013-12-31 13:05:00,
2013-12-31 06:10:00,23.2,4.0,29.91,SSW,202,6.3,6.7,43,0.00,,---,0.00,VWS V14.01,2013-12-31 13:10:00,
2013-12-31 06:15:00,23.0,3.8,29.91,SSW,205,6.3,6.3,43,0.00,,---,0.00,VWS V14.01,2013-12-31 13:15:00,
2013-12-31 06:20:00,22.8,3.7,29.91,SSW,205,7.6,7.6,43,0.00,,---,0.00,VWS V14.01,2013-12-31 13:20:00,
2013-12-31 06:25:00,22.8,3.7,29.91,SSW,208,7.6,7.6,43,0.00,,---,0.00,VWS V14.01,2013-12-31 13:25:00,
2013-12-31 06:30:00,22.8,3.7,29.91,SSW,211,7.2,7.2,43,0.00,,---,0.00,VWS V14.01,2013-12-31 13:30:00,
2013-12-31 06:35:00,22.5,3.4,29.91,SW,214,5.8,5.8,43,0.00,,---,0.00,VWS V14.01,2013-12-31 13:35:00,
2013-12-31 06:40:00,22.5,3.4,29.91,SW,217,5.4,5.4,43,0.00,,---,0.00,VWS V14.01,2013-12-31 13:40:00,
2013-12-31 06:45:00,22.5,3.4,29.91,SW,217,5.8,5.8,43,0.00,,---,0.00,VWS V14.01,2013-12-31 13:45:00,
2013-12-31 06:50:00,22.6,3.5,29.91,SSW,212,5.8,6.3,43,0.00,,---,0.00,VWS V14.01,2013-12-31 13:50:00,
2013-12-31 06:55:00,22.6,4.0,29.91,SSW,207,5.8,5.8,44,0.00,,---,0.00,VWS V14.01,2013-12-31 13:55:00,
2013-12-31 07:00:00,22.8,4.2,29.91,SSW,204,5.8,5.8,44,0.00,,---,0.00,VWS V14.01,2013-12-31 14:00:00,
2013-12-31 07:05:00,22.8,4.2,29.91,SW,217,4.9,5.4,44,0.00,,---,0.00,VWS V14.01,2013-12-31 14:05:00,
2013-12-31 07:10:00,22.8,4.2,29.91,SSW,212,5.4,5.4,44,0.00,,---,0.00,VWS V14.01,2013-12-31 14:10:00,
2013-12-31 07:15:00,22.8,4.2,29.88,SW,220,5.8,5.8,44,0.00,,---,0.00,VWS V14.01,2013-12-31 14:15:00,
2013-12-31 07:20:00,23.2,4.0,29.88,WSW,242,5.8,5.8,43,0.00,,---,0.00,VWS V14.01,2013-12-31 14:20:00,
2013-12-31 07:25:00,23.4,4.2,29.88,WSW,241,5.8,5.8,43,0.00,,---,0.00,VWS V14.01,2013-12-31 14:25:00,
2013-12-31 07:30:00,23.7,5.0,29.88,WSW,252,6.3,6.3,44,0.00,,---,0.00,VWS V14.01,2013-12-31 14:30:00,
2013-12-31 07:35:00,23.9,5.2,29.88,WSW,250,5.8,5.8,44,0.00,,---,0.00,VWS V14.01,2013-12-31 14:35:00,
2013-12-31 07:40:00,24.3,5.5,29.88,WSW,241,5.4,5.4,44,0.00,,---,0.00,VWS V14.01,2013-12-31 14:40:00,
2013-12-31 07:45:00,24.4,5.7,29.91,WSW,237,5.4,5.4,44,0.00,,---,0.00,VWS V14.01,2013-12-31 14:45:00,
2013-12-31 07:50:00,24.3,5.5,29.91,SW,226,5.8,6.3,44,0.00,,---,0.00,VWS V14.01,2013-12-31 14:50:00,
2013-12-31 07:55:00,24.3,5.5,29.88,SW,233,4.0,4.0,44,0.00,,---,0.00,VWS V14.01,2013-12-31 14:55:00,
2013-12-31 08:00:00,24.3,5.5,29.88,SW,225,3.6,3.6,44,0.00,,---,0.00,VWS V14.01,2013-12-31 15:00:00,
2013-12-31 08:05:00,24.3,5.5,29.88,WSW,244,4.0,4.0,44,0.00,,---,0.00,VWS V14.01,2013-12-31 15:05:00,
2013-12-31 08:10:00,24.6,5.8,29.88,WSW,250,4.0,4.0,44,0.00,,---,0.00,VWS V14.01,2013-12-31 15:10:00,
2013-12-31 08:15:00,24.8,6.0,29.88,WSW,241,3.6,3.6,44,0.00,,---,0.00,VWS V14.01,2013-12-31 15:15:00,
2013-12-31 08:20:00,24.8,6.0,29.88,SW,236,4.0,4.0,44,0.00,,---,0.00,VWS V14.01,2013-12-31 15:20:00,
2013-12-31 08:25:00,24.8,6.0,29.91,SW,234,3.6,3.6,44,0.00,,---,0.00,VWS V14.01,2013-12-31 15:25:00,
2013-12-31 08:30:00,25.2,6.3,29.91,SW,236,3.6,3.6,44,0.00,,---,0.00,VWS V14.01,2013-12-31 15:30:00,
2013-12-31 08:35:00,25.3,6.5,29.88,SW,230,3.1,3.1,44,0.00,,---,0.00,VWS V14.01,2013-12-31 15:35:00,
2013-12-31 08:40:00,25.3,6.5,29.88,SW,217,2.7,2.7,44,0.00,,---,0.00,VWS V14.01,2013-12-31 15:40:00,
2013-12-31 08:45:00,25.3,6.5,29.88,SW,217,4.0,4.0,44,0.00,,---,0.00,VWS V14.01,2013-12-31 15:45:00,
2013-12-31 08:50:00,25.3,6.5,29.88,SW,234,4.5,4.5,44,0.00,,---,0.00,VWS V14.01,2013-12-31 15:50:00,
2013-12-31 08:55:00,25.3,6.5,29.88,WSW,249,5.8,5.8,44,0.00,,---,0.00,VWS V14.01,2013-12-31 15:55:00,
2013-12-31 09:00:00,25.7,6.8,29.88,WSW,239,6.3,6.3,44,0.00,,---,0.00,VWS V14.01,2013-12-31 16:00:00,
2013-12-31 09:05:00,26.1,7.6,29.88,WSW,253,5.8,5.8,45,0.00,,---,0.00,VWS V14.01,2013-12-31 16:05:00,
2013-12-31 09:10:00,26.2,7.8,29.88,WSW,252,6.3,6.3,45,0.00,,---,0.00,VWS V14.01,2013-12-31 16:10:00,
2013-12-31 09:15:00,26.2,7.8,29.88,West,276,7.6,7.6,45,0.00,,---,0.00,VWS V14.01,2013-12-31 16:15:00,
2013-12-31 09:20:00,28.4,9.8,29.88,West,275,8.3,8.3,45,0.00,,---,0.00,VWS V14.01,2013-12-31 16:20:00,
2013-12-31 09:25:00,29.1,10.4,29.88,WNW,282,7.6,7.6,45,0.00,,---,0.00,VWS V14.01,2013-12-31 16:25:00,
2013-12-31 09:30:00,30.6,11.8,29.88,WSW,258,7.6,7.6,45,0.00,,---,0.00,VWS V14.01,2013-12-31 16:30:00,
2013-12-31 09:36:00,32.0,13.6,29.88,WSW,254,4.9,7.6,46,0.00,,---,0.00,VWS V14.01,2013-12-31 16:36:00,
2013-12-31 09:41:00,33.8,14.7,29.88,WNW,301,8.7,8.7,45,0.00,,---,0.00,VWS V14.01,2013-12-31 16:41:00,
2013-12-31 09:46:00,35.1,15.4,29.88,West,264,7.6,7.6,44,0.00,,---,0.00,VWS V14.01,2013-12-31 16:46:00,
2013-12-31 09:51:00,35.6,15.3,29.88,West,262,8.1,8.1,43,0.00,,---,0.00,VWS V14.01,2013-12-31 16:51:00,
2013-12-31 09:56:00,37.0,16.1,29.88,West,278,11.0,11.0,42,0.00,,---,0.00,VWS V14.01,2013-12-31 16:56:00,
2013-12-31 10:01:00,37.4,15.9,29.88,WNW,302,5.4,5.4,41,0.00,,---,0.00,VWS V14.01,2013-12-31 17:01:00,
2013-12-31 10:06:00,39.4,16.5,29.88,West,273,12.8,12.8,39,0.00,,---,0.00,VWS V14.01,2013-12-31 17:06:00,
2013-12-31 10:11:00,40.5,17.5,29.88,West,265,12.8,12.8,39,0.00,,---,0.00,VWS V14.01,2013-12-31 17:11:00,
2013-12-31 10:16:00,41.5,17.8,29.88,WNW,297,12.8,12.8,38,0.00,,---,0.00,VWS V14.01,2013-12-31 17:16:00,
2013-12-31 10:21:00,42.1,17.7,29.88,NW,318,8.7,12.8,37,0.00,,---,0.00,VWS V14.01,2013-12-31 17:21:00,
2013-12-31 10:26:00,43.5,17.7,29.88,WNW,297,12.8,12.8,35,0.00,,---,0.00,VWS V14.01,2013-12-31 17:26:00,
2013-12-31 10:31:00,45.0,16.9,29.88,WNW,297,12.8,12.8,32,0.00,,---,0.00,VWS V14.01,2013-12-31 17:31:00,
2013-12-31 10:36:00,46.2,18.0,29.88,West,278,15.0,15.0,32,0.00,,---,0.00,VWS V14.01,2013-12-31 17:36:00,
2013-12-31 10:41:00,47.1,17.3,29.88,NW,305,18.3,18.3,30,0.00,,---,0.00,VWS V14.01,2013-12-31 17:41:00,
2013-12-31 10:46:00,48.2,17.5,29.88,WNW,291,14.1,17.0,29,0.00,,---,0.00,VWS V14.01,2013-12-31 17:46:00,
2013-12-31 10:51:00,49.5,17.7,29.88,WNW,300,16.3,16.3,28,0.00,,---,0.00,VWS V14.01,2013-12-31 17:51:00,
2013-12-31 10:56:00,50.2,17.5,29.88,NW,309,17.0,17.0,27,0.00,,---,0.00,VWS V14.01,2013-12-31 17:56:00,
2013-12-31 11:01:00,50.7,18.0,29.88,West,274,19.2,19.2,27,0.00,,---,0.00,VWS V14.01,2013-12-31 18:01:00,
2013-12-31 11:06:00,50.7,18.0,29.88,NW,306,23.7,25.5,27,0.00,,---,0.00,VWS V14.01,2013-12-31 18:06:00,
2013-12-31 11:11:00,50.7,18.0,29.88,NW,312,16.3,21.5,27,0.00,,---,0.00,VWS V14.01,2013-12-31 18:11:00,
2013-12-31 11:16:00,51.1,17.4,29.88,NW,315,20.6,20.6,26,0.00,,---,0.00,VWS V14.01,2013-12-31 18:16:00,
2013-12-31 11:21:00,51.1,17.4,29.88,NW,319,15.0,15.0,26,0.00,,---,0.00,VWS V14.01,2013-12-31 18:21:00,
2013-12-31 11:26:00,51.1,15.6,29.88,NW,317,23.3,25.7,24,0.00,,---,0.00,VWS V14.01,2013-12-31 18:26:00,
2013-12-31 11:31:00,51.1,15.6,29.88,NW,318,27.5,27.5,24,0.00,,---,0.00,VWS V14.01,2013-12-31 18:31:00,
2013-12-31 11:36:00,51.1,15.6,29.88,NW,319,23.7,23.7,24,0.00,,---,0.00,VWS V14.01,2013-12-31 18:36:00,
2013-12-31 11:41:00,51.4,15.9,29.88,NW,322,25.5,25.5,24,0.00,,---,0.00,VWS V14.01,2013-12-31 18:41:00,
2013-12-31 11:46:00,51.4,15.9,29.88,NW,317,18.3,18.3,24,0.00,,---,0.00,VWS V14.01,2013-12-31 18:46:00,
2013-12-31 11:51:00,51.6,16.0,29.88,NW,321,22.8,22.8,24,0.00,,---,0.00,VWS V14.01,2013-12-31 18:51:00,
2013-12-31 11:56:00,52.0,15.4,29.88,NW,322,23.7,23.7,23,0.00,,---,0.00,VWS V14.01,2013-12-31 18:56:00,
2013-12-31 12:01:00,52.5,15.8,29.88,NW,315,23.3,23.3,23,0.00,,---,0.00,VWS V14.01,2013-12-31 19:01:00,
2013-12-31 12:06:00,52.9,14.0,29.88,NNW,336,25.1,25.1,21,0.00,,---,0.00,VWS V14.01,2013-12-31 19:06:00,
2013-12-31 12:11:00,53.1,14.2,29.88,WNW,302,19.7,24.2,21,0.00,,---,0.00,VWS V14.01,2013-12-31 19:11:00,
2013-12-31 12:16:00,53.2,14.3,29.88,NNW,329,24.2,24.2,21,0.00,,---,0.00,VWS V14.01,2013-12-31 19:16:00,
2013-12-31 12:21:00,53.4,14.5,29.88,NNW,346,11.9,18.8,21,0.00,,---,0.00,VWS V14.01,2013-12-31 19:21:00,
2013-12-31 12:26:00,53.6,13.5,29.88,NW,313,21.5,21.5,20,0.00,,---,0.00,VWS V14.01,2013-12-31 19:26:00,
2013-12-31 12:31:00,54.0,13.8,29.88,NW,326,21.5,21.5,20,0.00,,---,0.00,VWS V14.01,2013-12-31 19:31:00,
2013-12-31 12:36:00,54.0,13.8,29.88,NW,312,24.2,24.2,20,0.00,,---,0.00,VWS V14.01,2013-12-31 19:36:00,
2013-12-31 12:41:00,54.0,13.8,29.88,NNW,327,15.4,15.4,20,0.00,,---,0.00,VWS V14.01,2013-12-31 19:41:00,
2013-12-31 12:46:00,54.3,11.7,29.88,NNW,336,16.3,16.3,18,0.00,,---,0.00,VWS V14.01,2013-12-31 19:46:00,
2013-12-31 12:51:00,54.1,11.6,29.88,NW,316,22.8,22.8,18,0.00,,---,0.00,VWS V14.01,2013-12-31 19:51:00,
2013-12-31 12:56:00,54.1,11.6,29.85,NW,316,22.8,22.8,18,0.00,,---,0.00,VWS V14.01,2013-12-31 19:56:00,
2013-12-31 13:01:00,54.5,11.9,29.85,NNW,343,16.8,16.8,18,0.00,,---,0.00,VWS V14.01,2013-12-31 20:01:00,
2013-12-31 13:06:00,54.5,11.9,29.85,NW,319,19.2,19.2,18,0.00,,---,0.00,VWS V14.01,2013-12-31 20:06:00,
2013-12-31 13:11:00,54.5,11.9,29.85,NNW,327,18.8,18.8,18,0.00,,---,0.00,VWS V14.01,2013-12-31 20:11:00,
2013-12-31 13:16:00,54.3,11.7,29.85,NNW,341,13.2,13.2,18,0.00,,---,0.00,VWS V14.01,2013-12-31 20:16:00,
2013-12-31 13:21:00,54.5,11.9,29.85,NW,317,13.2,13.2,18,0.00,,---,0.00,VWS V14.01,2013-12-31 20:21:00,
2013-12-31 13:26:00,54.5,11.9,29.85,NNW,332,22.8,22.8,18,0.00,,---,0.00,VWS V14.01,2013-12-31 20:26:00,
2013-12-31 13:31:00,54.5,11.9,29.85,North,353,14.5,14.5,18,0.00,,---,0.00,VWS V14.01,2013-12-31 20:31:00,
2013-12-31 13:36:00,54.3,11.7,29.88,NNW,334,15.4,15.4,18,0.00,,---,0.00,VWS V14.01,2013-12-31 20:36:00,
2013-12-31 13:41:00,54.1,11.6,29.88,NNW,334,17.0,17.0,18,0.00,,---,0.00,VWS V14.01,2013-12-31 20:41:00,
2013-12-31 13:46:00,54.1,11.6,29.88,North,357,13.6,15.4,18,0.00,,---,0.00,VWS V14.01,2013-12-31 20:46:00,
2013-12-31 13:51:00,54.1,11.6,29.88,NW,321,15.4,15.4,18,0.00,,---,0.00,VWS V14.01,2013-12-31 20:51:00,
2013-12-31 13:56:00,54.3,11.7,29.88,NNW,327,15.4,15.4,18,0.00,,---,0.00,VWS V14.01,2013-12-31 20:56:00,
2013-12-31 14:01:00,54.1,11.6,29.88,WNW,289,13.2,13.2,18,0.00,,---,0.00,VWS V14.01,2013-12-31 21:01:00,
2013-12-31 14:06:00,54.1,11.6,29.88,NNW,332,17.4,17.4,18,0.00,,---,0.00,VWS V14.01,2013-12-31 21:06:00,
2013-12-31 14:11:00,54.1,11.6,29.88,NNW,330,13.2,13.2,18,0.00,,---,0.00,VWS V14.01,2013-12-31 21:11:00,
2013-12-31 14:16:00,54.1,11.6,29.88,NNW,343,15.4,18.8,18,0.00,,---,0.00,VWS V14.01,2013-12-31 21:16:00,
2013-12-31 14:21:00,54.0,11.4,29.88,NNW,340,15.4,15.9,18,0.00,,---,0.00,VWS V14.01,2013-12-31 21:21:00,
2013-12-31 14:26:00,53.8,11.3,29.88,NNW,344,13.6,17.4,18,0.00,,---,0.00,VWS V14.01,2013-12-31 21:26:00,
2013-12-31 14:31:00,53.8,11.3,29.88,North,0,17.0,17.0,18,0.00,,---,0.00,VWS V14.01,2013-12-31 21:31:00,
2013-12-31 14:36:00,53.8,11.3,29.88,NNW,345,15.9,15.9,18,0.00,,---,0.00,VWS V14.01,2013-12-31 21:36:00,
2013-12-31 14:41:00,53.8,11.3,29.88,NW,324,11.9,11.9,18,0.00,,---,0.00,VWS V14.01,2013-12-31 21:41:00,
2013-12-31 14:46:00,53.6,11.1,29.88,NNW,333,17.4,17.4,18,0.00,,---,0.00,VWS V14.01,2013-12-31 21:46:00,
2013-12-31 14:51:00,53.6,11.1,29.88,NNW,335,17.0,17.0,18,0.00,,---,0.00,VWS V14.01,2013-12-31 21:51:00,
2013-12-31 14:56:00,53.4,11.0,29.88,NNW,344,15.0,15.0,18,0.00,,---,0.00,VWS V14.01,2013-12-31 21:56:00,
2013-12-31 15:01:00,53.4,11.0,29.88,NNW,329,15.4,15.4,18,0.00,,---,0.00,VWS V14.01,2013-12-31 22:01:00,
2013-12-31 15:06:00,53.4,11.0,29.88,NNW,332,12.3,12.8,18,0.00,,---,0.00,VWS V14.01,2013-12-31 22:06:00,
2013-12-31 15:11:00,53.1,10.7,29.88,NNW,341,8.7,8.7,18,0.00,,---,0.00,VWS V14.01,2013-12-31 22:11:00,
2013-12-31 15:16:00,53.1,10.7,29.88,WNW,295,7.6,7.6,18,0.00,,---,0.00,VWS V14.01,2013-12-31 22:16:00,
2013-12-31 15:21:00,52.7,10.4,29.88,NNW,330,6.7,6.7,18,0.00,,---,0.00,VWS V14.01,2013-12-31 22:21:00,
2013-12-31 15:26:00,52.5,10.2,29.88,North,8,4.5,4.5,18,0.00,,---,0.00,VWS V14.01,2013-12-31 22:26:00,
2013-12-31 15:31:00,52.5,10.2,29.88,NNE,13,6.3,6.3,18,0.00,,---,0.00,VWS V14.01,2013-12-31 22:31:00,
2013-12-31 15:36:00,51.4,10.6,29.88,NNE,19,5.8,5.8,19,0.00,,---,0.00,VWS V14.01,2013-12-31 22:36:00,
2013-12-31 15:41:00,51.1,10.3,29.88,NNE,18,4.9,4.9,19,0.00,,---,0.00,VWS V14.01,2013-12-31 22:41:00,
2013-12-31 15:46:00,50.7,10.0,29.88,North,9,3.1,3.1,19,0.00,,---,0.00,VWS V14.01,2013-12-31 22:46:00,
2013-12-31 15:51:00,50.0,9.4,29.88,NNE,13,2.7,2.7,19,0.00,,---,0.00,VWS V14.01,2013-12-31 22:51:00,
2013-12-31 15:56:00,49.5,8.9,29.88,NNE,19,3.1,3.1,19,0.00,,---,0.00,VWS V14.01,2013-12-31 22:56:00,
2013-12-31 16:01:00,49.3,8.8,29.88,NNE,21,0.0,0.0,19,0.00,,---,0.00,VWS V14.01,2013-12-31 23:01:00,
2013-12-31 16:06:00,48.6,8.2,29.88,NE,44,3.6,3.6,19,0.00,,---,0.00,VWS V14.01,2013-12-31 23:06:00,
2013-12-31 16:11:00,48.2,7.9,29.88,NNE,27,4.0,4.5,19,0.00,,---,0.00,VWS V14.01,2013-12-31 23:11:00,
2013-12-31 16:16:00,48.2,7.9,29.88,NNE,27,4.0,4.0,19,0.00,,---,0.00,VWS V14.01,2013-12-31 23:16:00,
2013-12-31 16:21:00,47.3,7.1,29.88,NNE,14,5.4,5.4,19,0.00,,---,0.00,VWS V14.01,2013-12-31 23:21:00,
2013-12-31 16:26:00,47.1,7.0,29.88,NNE,20,5.8,5.8,19,0.00,,---,0.00,VWS V14.01,2013-12-31 23:26:00,
2013-12-31 16:31:00,46.6,6.5,29.88,NE,34,5.4,5.8,19,0.00,,---,0.00,VWS V14.01,2013-12-31 23:31:00,
2013-12-31 16:36:00,46.0,7.2,29.88,NE,43,4.9,4.9,20,0.00,,---,0.00,VWS V14.01,2013-12-31 23:36:00,
2013-12-31 16:41:00,46.0,7.2,29.88,ENE,59,6.3,6.3,20,0.00,,---,0.00,VWS V14.01,2013-12-31 23:41:00,
2013-12-31 16:46:00,44.4,5.9,29.88,ENE,78,6.7,6.7,20,0.00,,---,0.00,VWS V14.01,2013-12-31 23:46:00,
2013-12-31 16:51:00,43.2,4.8,29.88,East,92,8.3,8.3,20,0.00,,---,0.00,VWS V14.01,2013-12-31 23:51:00,
2013-12-31 16:56:00,41.4,4.4,29.88,East,89,7.6,7.6,21,0.00,,---,0.00,VWS V14.01,2013-12-31 23:56:00,
2013-12-31 17:01:00,40.3,5.4,29.88,East,87,6.3,6.7,23,0.00,,---,0.00,VWS V14.01,2014-01-01 00:01:00,
2013-12-31 17:06:00,39.9,5.1,29.88,East,83,6.3,6.7,23,0.00,,---,0.00,VWS V14.01,2014-01-01 00:06:00,
2013-12-31 17:11:00,40.3,8.1,29.88,ENE,76,6.3,6.3,26,0.00,,---,0.00,VWS V14.01,2014-01-01 00:11:00,
2013-12-31 17:16:00,40.6,8.4,29.88,ENE,73,6.7,6.7,26,0.00,,---,0.00,VWS V14.01,2014-01-01 00:16:00,
2013-12-31 17:21:00,41.2,10.6,29.88,East,83,6.3,6.3,28,0.00,,---,0.00,VWS V14.01,2014-01-01 00:21:00,
2013-12-31 17:26:00,41.2,10.6,29.85,East,84,6.3,6.3,28,0.00,,---,0.00,VWS V14.01,2014-01-01 00:26:00,
2013-12-31 17:31:00,41.0,10.4,29.85,East,99,7.6,7.6,28,0.00,,---,0.00,VWS V14.01,2014-01-01 00:31:00,
2013-12-31 17:36:00,40.5,9.9,29.88,ESE,103,7.6,7.6,28,0.00,,---,0.00,VWS V14.01,2014-01-01 00:36:00,
2013-12-31 17:41:00,39.9,9.5,29.88,East,89,6.3,6.3,28,0.00,,---,0.00,VWS V14.01,2014-01-01 00:41:00,
2013-12-31 17:46:00,39.0,9.5,29.88,East,88,8.1,8.1,29,0.00,,---,0.00,VWS V14.01,2014-01-01 00:46:00,
2013-12-31 17:51:00,39.0,9.5,29.88,East,86,6.3,6.3,29,0.00,,---,0.00,VWS V14.01,2014-01-01 00:51:00,
2013-12-31 17:57:00,38.7,9.2,29.85,East,98,7.6,7.6,29,0.00,,---,0.00,VWS V14.01,2014-01-01 00:57:00,
2013-12-31 18:02:00,38.5,9.0,29.85,ESE,102,8.7,8.7,29,0.00,,---,0.00,VWS V14.01,2014-01-01 01:02:00,
2013-12-31 18:07:00,37.9,8.5,29.88,ESE,107,8.3,8.3,29,0.00,,---,0.00,VWS V14.01,2014-01-01 01:07:00,
2013-12-31 18:12:00,37.8,8.4,29.88,ESE,102,5.4,5.8,29,0.00,,---,0.00,VWS V14.01,2014-01-01 01:12:00,
2013-12-31 18:17:00,37.6,8.2,29.88,ESE,113,5.8,5.8,29,0.00,,---,0.00,VWS V14.01,2014-01-01 01:17:00,
2013-12-31 18:22:00,37.6,8.2,29.88,SE,128,8.3,8.3,29,0.00,,---,0.00,VWS V14.01,2014-01-01 01:22:00,
2013-12-31 18:27:00,37.4,8.1,29.88,SSE,147,8.1,8.1,29,0.00,,---,0.00,VWS V14.01,2014-01-01 01:27:00,
2013-12-31 18:32:00,37.0,8.5,29.88,SSE,147,7.2,7.2,30,0.00,,---,0.00,VWS V14.01,2014-01-01 01:32:00,
2013-12-31 18:37:00,37.0,8.5,29.88,SE,145,6.7,6.7,30,0.00,,---,0.00,VWS V14.01,2014-01-01 01:37:00,
2013-12-31 18:42:00,36.7,8.2,29.88,SE,139,8.1,8.1,30,0.00,,---,0.00,VWS V14.01,2014-01-01 01:42:00,
2013-12-31 18:47:00,36.3,7.9,29.88,SE,135,7.6,7.6,30,0.00,,---,0.00,VWS V14.01,2014-01-01 01:47:00,
2013-12-31 18:52:00,36.1,7.7,29.88,SE,140,7.6,7.6,30,0.00,,---,0.00,VWS V14.01,2014-01-01 01:52:00,
2013-12-31 18:57:00,36.0,7.6,29.88,SSE,156,7.6,7.6,30,0.00,,---,0.00,VWS V14.01,2014-01-01 01:57:00,
2013-12-31 19:02:00,35.8,7.4,29.88,South,171,7.6,8.3,30,0.00,,---,0.00,VWS V14.01,2014-01-01 02:02:00,
2013-12-31 19:07:00,35.8,7.4,29.85,SSE,157,7.6,8.7,30,0.00,,---,0.00,VWS V14.01,2014-01-01 02:07:00,
2013-12-31 19:12:00,35.6,7.2,29.85,SSE,157,8.1,8.1,30,0.00,,---,0.00,VWS V14.01,2014-01-01 02:12:00,
2013-12-31 19:17:00,34.9,7.3,29.85,SSE,154,5.8,5.8,31,0.00,,---,0.00,VWS V14.01,2014-01-01 02:17:00,
2013-12-31 19:22:00,34.5,7.0,29.85,South,169,6.3,6.3,31,0.00,,---,0.00,VWS V14.01,2014-01-01 02:22:00,
2013-12-31 19:27:00,34.3,6.9,29.85,SSE,154,8.3,8.3,31,0.00,,---,0.00,VWS V14.01,2014-01-01 02:27:00,
2013-12-31 19:32:00,34.0,6.5,29.85,SSE,158,8.1,8.1,31,0.00,,---,0.00,VWS V14.01,2014-01-01 02:32:00,
2013-12-31 19:37:00,33.6,6.9,29.88,SSE,153,5.8,6.3,32,0.00,,---,0.00,VWS V14.01,2014-01-01 02:37:00,
2013-12-31 19:42:00,33.3,6.6,29.88,SE,138,7.6,7.6,32,0.00,,---,0.00,VWS V14.01,2014-01-01 02:42:00,
2013-12-31 19:47:00,32.7,5.4,29.88,SE,129,5.4,5.4,31,0.00,,---,0.00,VWS V14.01,2014-01-01 02:47:00,
2013-12-31 19:52:00,32.5,5.3,29.85,SE,142,7.6,7.6,31,0.00,,---,0.00,VWS V14.01,2014-01-01 02:52:00,
2013-12-31 19:57:00,32.2,5.0,29.85,SE,135,8.3,8.3,31,0.00,,---,0.00,VWS V14.01,2014-01-01 02:57:00,
2013-12-31 20:02:00,32.2,5.0,29.85,ESE,122,6.3,6.3,31,0.00,,---,0.00,VWS V14.01,2014-01-01 03:02:00,
2013-12-31 20:07:00,32.2,5.0,29.85,ESE,116,7.6,7.6,31,0.00,,---,0.00,VWS V14.01,2014-01-01 03:07:00,
2013-12-31 20:12:00,31.8,5.3,29.85,ESE,115,5.8,5.8,32,0.00,,---,0.00,VWS V14.01,2014-01-01 03:12:00,
2013-12-31 20:17:00,31.8,5.3,29.88,SE,127,8.7,8.7,32,0.00,,---,0.00,VWS V14.01,2014-01-01 03:17:00,
2013-12-31 20:22:00,31.8,5.3,29.88,SE,144,7.6,7.6,32,0.00,,---,0.00,VWS V14.01,2014-01-01 03:22:00,
2013-12-31 20:27:00,32.2,6.3,29.88,SSE,157,14.5,14.5,33,0.00,,---,0.00,VWS V14.01,2014-01-01 03:27:00,
2013-12-31 20:32:00,32.4,7.8,29.88,SSE,155,13.2,13.6,35,0.00,,---,0.00,VWS V14.01,2014-01-01 03:32:00,
2013-12-31 20:37:00,32.7,8.7,29.88,SSE,157,13.2,13.2,36,0.00,,---,0.00,VWS V14.01,2014-01-01 03:37:00,
2013-12-31 20:42:00,32.7,8.7,29.88,SE,146,12.8,12.8,36,0.00,,---,0.00,VWS V14.01,2014-01-01 03:42:00,
2013-12-31 20:47:00,32.7,8.7,29.88,SE,141,10.5,12.8,36,0.00,,---,0.00,VWS V14.01,2014-01-01 03:47:00,
2013-12-31 20:52:00,33.3,9.2,29.88,SE,124,10.5,10.5,36,0.00,,---,0.00,VWS V14.01,2014-01-01 03:52:00,
2013-12-31 20:57:00,33.1,9.1,29.88,SE,131,10.1,10.1,36,0.00,,---,0.00,VWS V14.01,2014-01-01 03:57:00,
2013-12-31 21:02:00,33.1,9.1,29.88,SE,130,9.6,9.6,36,0.00,,---,0.00,VWS V14.01,2014-01-01 04:02:00,
2013-12-31 21:07:00,33.1,9.1,29.88,SSE,157,11.9,14.1,36,0.00,,---,0.00,VWS V14.01,2014-01-01 04:07:00,
2013-12-31 21:12:00,32.7,8.7,29.85,SSE,153,10.1,10.1,36,0.00,,---,0.00,VWS V14.01,2014-01-01 04:12:00,
2013-12-31 21:17:00,32.5,8.6,29.85,SE,135,11.0,11.0,36,0.00,,---,0.00,VWS V14.01,2014-01-01 04:17:00,
2013-12-31 21:22:00,32.2,8.2,29.85,SSE,149,10.5,10.5,36,0.00,,---,0.00,VWS V14.01,2014-01-01 04:22:00,
2013-12-31 21:27:00,32.2,8.2,29.85,SE,144,10.1,10.1,36,0.00,,---,0.00,VWS V14.01,2014-01-01 04:27:00,
2013-12-31 21:32:00,31.6,7.8,29.85,SSE,164,8.7,10.1,36,0.00,,---,0.00,VWS V14.01,2014-01-01 04:32:00,
2013-12-31 21:37:00,31.1,7.3,29.85,South,175,8.7,8.7,36,0.00,,---,0.00,VWS V14.01,2014-01-01 04:37:00,
2013-12-31 21:42:00,30.7,7.0,29.85,South,180,8.1,8.1,36,0.00,,---,0.00,VWS V14.01,2014-01-01 04:42:00,
2013-12-31 21:47:00,30.6,6.8,29.85,South,173,7.6,8.1,36,0.00,,---,0.00,VWS V14.01,2014-01-01 04:47:00,
2013-12-31 21:52:00,30.6,6.8,29.85,South,177,8.7,8.7,36,0.00,,---,0.00,VWS V14.01,2014-01-01 04:52:00,
2013-12-31 21:57:00,30.2,7.1,29.85,South,179,8.3,8.3,37,0.00,,---,0.00,VWS V14.01,2014-01-01 04:57:00,
2013-12-31 22:01:00,30.2,7.1,29.85,South,177,8.3,8.3,37,0.00,,---,0.00,VWS V14.01,2014-01-01 05:01:00,
2013-12-31 22:02:00,30.2,7.1,29.85,South,177,8.3,8.3,37,0.00,,---,0.00,VWS V14.01,2014-01-01 05:02:00,
2013-12-31 22:04:00,30.0,6.9,29.85,South,177,8.3,8.3,37,0.00,,---,0.00,VWS V14.01,2014-01-01 05:04:00,
2013-12-31 22:08:00,30.0,6.9,29.85,South,171,8.3,8.3,37,0.00,,---,0.00,VWS V14.01,2014-01-01 05:08:00,
2013-12-31 22:09:00,30.0,6.9,29.85,South,171,8.3,8.3,37,0.00,,---,0.00,VWS V14.01,2014-01-01 05:09:00,
2013-12-31 22:14:00,30.0,6.9,29.85,South,175,5.8,6.7,37,0.00,,---,0.00,VWS V14.01,2014-01-01 05:14:00,
2013-12-31 22:20:00,30.0,6.9,29.85,South,178,8.1,8.1,37,0.00,,---,0.00,VWS V14.01,2014-01-01 05:20:00,
2013-12-31 22:25:00,29.8,6.8,29.85,South,187,6.3,6.3,37,0.00,,---,0.00,VWS V14.01,2014-01-01 05:25:00,
2013-12-31 22:30:00,29.8,6.8,29.85,SSE,168,6.7,6.7,37,0.00,,---,0.00,VWS V14.01,2014-01-01 05:30:00,
2013-12-31 22:36:00,30.0,6.9,29.85,SSE,168,8.7,8.7,37,0.00,,---,0.00,VWS V14.01,2014-01-01 05:36:00,
2013-12-31 22:42:00,30.0,6.9,29.82,South,173,8.3,8.3,37,0.00,,---,0.00,VWS V14.01,2014-01-01 05:42:00,
2013-12-31 22:47:00,30.0,7.5,29.82,SSW,193,0.0,5.4,38,0.00,,---,0.00,VWS V14.01,2014-01-01 05:47:00,
2013-12-31 22:52:00,30.0,7.5,29.82,South,181,5.4,5.8,38,0.00,,---,0.00,VWS V14.01,2014-01-01 05:52:00,
2013-12-31 22:58:00,30.0,7.5,29.82,South,187,5.8,5.8,38,0.00,,---,0.00,VWS V14.01,2014-01-01 05:58:00,
2013-12-31 23:03:00,30.0,7.5,29.85,SSW,213,7.6,7.6,38,0.00,,---,0.00,VWS V14.01,2014-01-01 06:03:00,
2013-12-31 23:08:00,30.0,7.5,29.85,South,184,10.1,10.5,38,0.00,,---,0.00,VWS V14.01,2014-01-01 06:08:00,
2013-12-31 23:13:00,30.2,8.2,29.85,South,180,8.3,8.3,39,0.00,,---,0.00,VWS V14.01,2014-01-01 06:13:00,
2013-12-31 23:18:00,30.2,8.2,29.85,SW,226,3.1,4.0,39,0.00,,---,0.00,VWS V14.01,2014-01-01 06:18:00,
2013-12-31 23:19:00,30.2,8.2,29.85,SW,227,4.0,4.0,39,0.00,,---,0.00,VWS V14.01,2014-01-01 06:19:00,
2013-12-31 23:24:00,30.2,8.8,29.82,SSE,162,9.2,9.2,40,0.00,,---,0.00,VWS V14.01,2014-01-01 06:24:00,
2013-12-31 23:30:00,30.2,8.8,29.82,SSW,197,6.3,10.5,40,0.00,,---,0.00,VWS V14.01,2014-01-01 06:30:00,
2013-12-31 23:35:00,30.2,8.8,29.82,South,171,10.5,12.8,40,0.00,,---,0.00,VWS V14.01,2014-01-01 06:35:00,
2013-12-31 23:41:00,30.4,9.0,29.82,SSW,198,10.1,10.5,40,0.00,,---,0.00,VWS V14.01,2014-01-01 06:41:00,
2013-12-31 23:46:00,30.4,9.0,29.82,SSE,157,8.7,12.8,40,0.00,,---,0.00,VWS V14.01,2014-01-01 06:46:00,
2013-12-31 23:52:00,30.6,9.1,29.82,South,171,12.3,12.3,40,0.00,,---,0.00,VWS V14.01,2014-01-01 06:52:00,
2013-12-31 23:58:00,30.6,9.1,29.82,South,174,12.8,12.8,40,0.00,,---,0.00,VWS V14.01,2014-01-01 06:58:00,